FENGYUN 1C DEB

Satellite information

Favourite Embed

Satellite Type and Status

DEBRISIN ORBIT

Key statistics

Satellite FENGYUN 1C DEB at a glance.

Uptime

9556

Days in orbit

Revolutions

≈ 14.2

Per day

Orbit

SSO

Sun Synchronous Orbit

Inclination

98.6

Latest

Satellite identification and parameters

Extended collection of information and parameters for FENGYUN 1C DEB.

Object identification

Identified? True

Debris? True

Object name: FENGYUN 1C DEB

International designator: 1999-025ACC

Object number (NORAD): 30365

Object ID (CCSDS): 30365

Country: PEOPLES REPUBLIC OF CHINA (PRC)

Current information (Y/N): Y

RCS size: SMALL

Orbital parameters

Period: 101.481 minutes

Inclination: 98.6092 deg

SMA: 7206.919 km

Apoapsis: 949.047 km

Periapsis: 708.521 km

RAAN: 187.5788 deg

Eccentricy: 0.0166872

Argument of periapsis: 206.6772 deg

Mean anomaly: 218.8357 deg

Mean motion: 14.18986583 rev/day

Mean motion (dot): 0.00000282 rev/day2

B* drag term: 0.00013573 1/REarth

Two-line elements (TLE)

Creation date: July 7, 2025, 10:56 p.m.

Reference frame: TEME

Reference center: EARTH

Epoch: July 7, 2025, 9:47 p.m. UTC

TLE line 0: 0 FENGYUN 1C DEB

TLE line 1: 1 30365U 99025ACC 25188.90800501 .00000282 00000-0 13573-3 0 9993

TLE line 2: 2 30365 98.6092 187.5788 0166872 206.6772 218.8357 14.18986583953854

Live tracking on map

Real-time ground track for satellite FENGYUN 1C DEB.

In-orbit conjunctions

A list of the most updated potential collisions computed for object FENGYUN 1C DEB.

Target Orbit TCA Probability of collision Miss distance Type
ERS 2 DEB SSO 2024-10-22 09:39:52 0.000113893 66.0 (m) DEBRIS
FENGYUN 1C DEB SSO 2024-09-21 13:46:01 0.0001956645 227.0 (m) DEBRIS
FENGYUN 1C DEB SSO 2024-06-01 07:37:53 0.0002323582 164.0 (m) DEBRIS

Associated space launch

Chinese polar orbiting meteorological satellite

FENGYUN 1C DEB was lifted into orbit during the mission ‘Long March 4B | Feng Yun 1C’, on board a Long March 4B space rocket.

The launch took place on May 10, 1999, 1:33 a.m. from Launch Complex 7.

For more information about the launch, click the button.

Launch to space Long March 4B | Feng Yun 1C
Long March 4B | Feng Yun 1C

Agency: N/A

Status: Launch Successful

Launch date: May 10, 1999, 1:33 a.m. UTC

Rocket: Long March 4B

Launch pad: Launch Complex 7

Location: Taiyuan Satellite Launch Center, People's Republic of China

...

Latest news about this satellite

There are no fresh news available about this satellite. Check back as we update our databases every day.


Newsletter sign-up

Weekly statistics, charts and insights to help you stay on top of the space industry.